Flag for Canada Weather past 2 weeks in Resolute Bay, Nunavut Territory, Canada

Now
-27 °F

Snow flurries. Sunny.


Feels Like: -48 °F
Forecast: -29 / -17 °F
Wind: 8 mph from North

Location: Resolute

Current Time: Mar 27, 2015 at 12:34:07 PM

Latest Report: Mar 27, 2015 at 12:00 PM


Visibility: 15 mi

Pressure: 29.67 "Hg

Humidity: 67%

Dew point: -35 °F

Location of Resolute BayLocation

Historic Weather in Resolute Bay — Graph

°F

Resolute Bay temperature yesterday

Maximum temperature yesterday: -11 °F (at 12:45 AM)
Minimum temperature yesterday: -27 °F (at 9:00 PM)
Average temperature yesterday: -19 °F

Past Weeks' High & Low Weather Summary

 TemperatureHumidityPressure
High3 °F (Mar 18, 1:00 PM)85% (Mar 18, 6:00 AM)30.37 "Hg (Mar 18, 6:00 AM)
Low-31 °F (Mar 14, 4:00 AM)59% (Mar 19, 9:00 PM)29.57 "Hg (Mar 16, 1:00 PM)
Average-15 °F73%29.98 "Hg
* Reported Mar 12 11:00 AM — Mar 27 11:00 AM, Resolute Bay, Weather by CustomWeather, © 2015

Note: Actual official high and low records may vary slightly from our data, if they occured in-between our weather recording intervals... More about our weather records

Advertising

Resolute Bay weather history for previous 24 hours

 ConditionsComfort  
Time TempWeatherWind HumidityBarometerVisibility
11:00 AM
Fri, Mar 27
-29 °FSnow flurries. Sunny.15 mph67%29.66 "Hg15 mi
10:00 AM-26 °FSnow flurries. Sunny.9 mph67%29.66 "Hg15 mi
9:00 AM-27 °FSnow flurries. Sunny.15 mph67%29.66 "Hg15 mi
8:00 AM-31 °FSnow flurries. Sunny.12 mph67%29.65 "Hg15 mi
7:46 AM-31 °FSnow flurries. Sunny.16 mph67%29.65 "Hg15 mi
7:00 AM-31 °FSnow flurries. Clear.10 mph67%29.66 "Hg15 mi
6:00 AM-31 °FSnow flurries. Clear.10 mph67%29.66 "Hg15 mi
5:00 AM-31 °FSnow flurries. Clear.3 mph67%29.65 "Hg15 mi
4:00 AM-27 °FSnow flurries. Passing clouds.13 mph61%29.64 "Hg15 mi
3:00 AM-29 °FSnow flurries. Passing clouds.8 mph67%29.65 "Hg15 mi
2:00 AM-27 °FSnow flurries. Passing clouds.9 mph67%29.63 "Hg15 mi
1:00 AM-27 °FSnow flurries. Passing clouds.16 mph67%29.62 "Hg15 mi
12:00 AM-27 °FSnow flurries. Passing clouds.9 mph74%29.63 "Hg15 mi
11:00 PM
Thu, Mar 26
-27 °FSnow flurries. Passing clouds.21 mph74%29.63 "Hg15 mi
10:00 PM-27 °FSnow flurries. Passing clouds.18 mph67%29.64 "Hg15 mi
9:00 PM-27 °FSnow flurries. Passing clouds.14 mph74%29.65 "Hg15 mi
8:00 PM-26 °FSnow flurries. Passing clouds.21 mph67%29.64 "Hg15 mi
7:00 PM-24 °FSnow flurries. Passing clouds.16 mph68%29.65 "Hg15 mi
6:00 PM-22 °FSnow flurries. Passing clouds.16 mph68%29.65 "Hg15 mi
5:00 PM-22 °FSnow flurries. Passing clouds.13 mph68%29.64 "Hg15 mi
4:00 PM-20 °FSnow flurries. Passing clouds.13 mph68%29.64 "Hg15 mi
3:00 PM-20 °FSnow flurries. Passing clouds.12 mph75%29.63 "Hg15 mi
2:00 PM-18 °FSnow flurries. Passing clouds.10 mph69%29.63 "Hg15 mi
1:00 PM-18 °FLight snow. Partly sunny.6 mph75%29.64 "Hg12 mi
12:00 PM-17 °FLight snow. Partly sunny.13 mph69%29.64 "Hg15 mi
Weather by CustomWeather, © 2015

See weather overviewHow to use our weather pages